Location: Newark
(41.6500°N, 71.4833°W)
Time: 23:02:59
(UTC+00:00)

Courier 1B - Pass Details

Date: 25 January 2020
Orbit: 962 x 1209 km, 28.3° (Epoch: 19 February)

Event Time Altitude Azimuth Distance (km) Brightness Sun altitude
Rises 08:42:10 0° 241° (WSW) 3,892 - -37.7°
Reaches altitude 10° 08:45:16 10° 230° (SW) 2,976 - -37.1°
Maximum altitude 08:51:21 28° 174° (S) 1,996 - -36.0°
Exits shadow 08:52:10 28° 163° (SSE) 2,027 9.1 -35.9°
Drops below altitude 10° 08:57:41 10° 118° (ESE) 3,105 10.7 -34.8°
Sets 09:00:59 0° 108° (ESE) 4,090 11.6 -34.2°
